DW0756 Weather Reports


Display with metric or nautical units.
time (UTC)temp
F
wind
direction
speed
MPH
gust
MPH
rain 1hr
in
rain 24hr
in
rain mn
in
humidity
%
barometer
mb
20260504081604 41 299 2.0 5.0 0.00 0.00 0.00
20260504081104 41 303 2.0 6.0 0.00 0.00 0.00
20260504080104 40 325 2.0 7.0 0.00 0.00 0.00
20260504060104 39 282 0.0 1.0 0.00 0.00 0.00
20260504050603 39 328 0.0 1.0 0.00 0.00 0.00
20260504045103 39 329 0.0 0.0 0.00 0.00 0.00
20260504044104 40 328 0.0 0.0 0.00 0.00 0.00
20260504043604 39 330 0.0 0.0 0.00 0.00 0.00
20260504043104 40 326 0.0 0.0 0.00 0.00 0.00
20260504042604 39 328 0.0 0.0 0.00 0.00 0.00
20260504042103 39 327 0.0 0.0 0.00 0.00 0.00
20260504040603 40 326 0.0 0.0 0.00 0.00 0.00
20260504035105 40 324 0.0 0.0 0.00 0.00 0.00
20260504033604 41 325 0.0 0.0 0.00 0.00 0.00
20260504033104 41 325 0.0 0.0 0.00 0.00 0.00
20260504032603 41 327 0.0 0.0 0.00 0.00 0.00
20260504031603 41 328 0.0 0.0 0.00 0.00 0.00
20260504030104 42 326 0.0 0.0 0.00 0.00 0.00
20260504024604 42 326 0.0 0.0 0.00 0.00 0.00
20260504023604 43 327 0.0 0.0 0.00 0.00 0.00
20260504023104 43 327 0.0 0.0 0.00 0.00 0.00
20260504022603 43 327 0.0 0.0 0.00 0.00 0.00
20260504021603 44 330 0.0 0.0 0.00 0.00 0.00
20260504015604 45 329 0.0 0.0 0.00 0.00 0.00
20260504015103 45 330 0.0 0.0 0.00 0.00 0.00
20260504014103 46 330 0.0 0.0 0.00 0.00 0.00
20260504013605 46 330 0.0 0.0 0.00 0.00 0.00
20260504012105 47 330 0.0 0.0 0.00 0.00 0.00
20260504011104 47 330 0.0 2.0 0.00 0.00 0.00
20260504010604 48 329 0.0 3.0 0.00 0.00 0.00
20260504010104 48 332 1.0 3.0 0.00 0.00 0.00
20260504005604 48 311 1.0 3.0 0.00 0.00 0.00
20260504005104 49 338 1.0 3.0 0.00 0.00 0.00
20260504003604 51 333 1.0 6.0 0.00 0.00 0.00
20260504000104 54 338 3.0 10.0 0.00 0.00 0.00
20260503234604 56 339 4.0 13.0 0.00 0.00 0.00
20260503233603 57 351 4.0 10.0 0.00 0.00 0.00
20260503232105 57 358 4.0 12.0 0.00 0.00 0.00
20260503231104 57 353 5.0 10.0 0.00 0.00 0.00
20260503230104 57 353 3.0 12.0 0.00 0.00 0.00
20260503225103 59 6 2.0 12.0 0.00 0.00 0.00
20260503224604 59 343 5.0 12.0 0.00 0.00 0.00
20260503223604 59 356 6.0 13.0 0.00 0.00 0.00
20260503223104 60 13 6.0 16.0 0.00 0.00 0.00
20260503221604 64 6 8.0 17.0 0.00 0.00 0.00
20260503215104 58 352 6.0 13.0 0.00 0.00 0.00
20260503214604 60 1 6.0 17.0 0.00 0.00 0.00
20260503214104 61 333 5.0 18.0 0.00 0.00 0.00
20260503213603 62 354 6.0 20.0 0.00 0.00 0.00
20260503212604 62 353 8.0 20.0 0.00 0.00 0.00
20260503212103 64 358 5.0 16.0 0.00 0.00 0.00
20260503211104 64 8 7.0 16.0 0.00 0.00 0.00
20260503205103 63 352 10.0 24.0 0.00 0.00 0.00
20260503204604 63 7 7.0 20.0 0.00 0.00 0.00
20260503203604 62 310 7.0 17.0 0.00 0.00 0.00
20260503203103 62 24 7.0 21.0 0.00 0.00 0.00
20260503202605 62 340 9.0 21.0 0.00 0.00 0.00
20260503202104 64 353 9.0 18.0 0.00 0.00 0.00
20260503201104 63 6 6.0 16.0 0.00 0.00 0.00
20260503195604 64 346 6.0 20.0 0.00 0.00 0.00
20260503195104 62 12 10.0 20.0 0.00 0.00 0.00
20260503194604 62 346 6.0 15.0 0.00 0.00 0.00
20260503194104 58 358 8.0 15.0 0.00 0.00 0.00
20260503193604 59 15 5.0 17.0 0.00 0.00 0.00
20260503192604 60 16 6.0 20.0 0.00 0.00 0.00
20260503191604 59 7 6.0 18.0 0.00 0.00 0.00
20260503184603 61 354 9.0 22.0 0.00 0.00 0.00
20260503183604 59 350 12.0 22.0 0.00 0.00 0.00
20260503182605 61 344 3.0 16.0 0.00 0.00 0.00
20260503182104 62 348 5.0 12.0 0.00 0.00 0.00
20260503180604 57 338 6.0 15.0 0.00 0.00 0.00
20260503180105 57 352 4.0 16.0 0.00 0.00 0.00
20260503175604 57 21 8.0 20.0 0.00 0.00 0.00
20260503175104 59 30 7.0 20.0 0.00 0.00 0.00
20260503174103 57 325 5.0 18.0 0.00 0.00 0.00
20260503173603 58 26 7.0 17.0 0.00 0.00 0.00
20260503172603 55 10 5.0 16.0 0.00 0.00 0.00
20260503172104 57 336 3.0 20.0 0.00 0.00 0.00
20260503171604 55 338 5.0 20.0 0.00 0.00 0.00
20260503170604 57 337 5.0 16.0 0.00 0.00 0.00
20260503160104 56 10 4.0 20.0 0.00 0.00 0.00
20260503130104 48 5 7.0 18.0 0.00 0.00 0.00
20260503110104 43 338 3.0 7.0 0.00 0.00 0.00